TimeEST,TemperatureF,Dew PointF,Humidity,Sea Level PressureIn,VisibilityMPH,Wind Direction,Wind SpeedMPH,Gust SpeedMPH,PrecipitationIn,Events,Conditions,WindDirDegrees,DateUTC
12:14 AM,21.2,9.1,60,30.31,10.0,WNW,5.8,-,N/A,,Mostly Cloudy,290,2013-01-18 05:14:00
12:34 AM,21.4,7.0,54,30.32,10.0,WNW,8.1,-,N/A,,Overcast,290,2013-01-18 05:34:00
12:54 AM,21.2,5.7,51,30.32,10.0,WNW,8.1,-,N/A,,Scattered Clouds,290,2013-01-18 05:54:00
1:14 AM,21.2,6.1,52,30.32,10.0,WNW,9.2,-,N/A,,Scattered Clouds,290,2013-01-18 06:14:00
1:34 AM,21.2,6.3,53,30.33,10.0,WNW,8.1,-,N/A,,Scattered Clouds,290,2013-01-18 06:34:00
1:54 AM,21.0,6.4,53,30.34,10.0,WNW,8.1,-,N/A,,Clear,290,2013-01-18 06:54:00
2:14 AM,20.5,6.8,56,30.35,10.0,WNW,5.8,-,N/A,,Clear,300,2013-01-18 07:14:00
2:34 AM,19.8,7.2,58,30.36,10.0,WNW,4.6,-,N/A,,Clear,300,2013-01-18 07:34:00
2:54 AM,19.9,7.3,58,30.37,10.0,NW,4.6,-,N/A,,Mostly Cloudy,310,2013-01-18 07:54:00
3:14 AM,19.9,7.7,59,30.37,10.0,Calm,Calm,-,N/A,,Overcast,0,2013-01-18 08:14:00
3:34 AM,19.8,7.2,58,30.37,10.0,Calm,Calm,-,N/A,,Mostly Cloudy,0,2013-01-18 08:34:00
3:54 AM,19.0,7.9,62,30.37,10.0,Calm,Calm,-,N/A,,Scattered Clouds,0,2013-01-18 08:54:00
4:14 AM,18.1,8.6,66,30.36,10.0,WSW,3.5,-,N/A,,Mostly Cloudy,240,2013-01-18 09:14:00
4:34 AM,18.1,10.2,71,30.36,10.0,West,3.5,-,N/A,,Overcast,260,2013-01-18 09:34:00
4:54 AM,19.0,9.1,65,30.36,10.0,Calm,Calm,-,N/A,,Overcast,0,2013-01-18 09:54:00
5:14 AM,18.9,9.1,66,30.36,10.0,Calm,Calm,-,N/A,,Overcast,0,2013-01-18 10:14:00
5:54 AM,19.8,12.2,72,30.36,10.0,Calm,Calm,-,N/A,,Overcast,0,2013-01-18 10:54:00
6:14 AM,19.0,11.7,73,30.37,10.0,Calm,Calm,-,N/A,,Overcast,0,2013-01-18 11:14:00
6:34 AM,19.0,10.8,70,30.37,10.0,Calm,Calm,-,N/A,,Mostly Cloudy,0,2013-01-18 11:34:00
6:54 AM,19.2,11.3,71,30.37,10.0,SSW,4.6,-,N/A,,Scattered Clouds,200,2013-01-18 11:54:00
7:14 AM,19.2,10.0,67,30.37,10.0,South,4.6,-,N/A,,Scattered Clouds,190,2013-01-18 12:14:00
7:34 AM,18.0,11.1,75,30.36,10.0,South,3.5,-,N/A,,Overcast,170,2013-01-18 12:34:00
7:54 AM,20.3,10.6,66,30.36,10.0,South,3.5,-,N/A,,Mostly Cloudy,180,2013-01-18 12:54:00
8:14 AM,20.1,11.7,70,30.34,10.0,South,5.8,-,N/A,,Scattered Clouds,170,2013-01-18 13:14:00
8:34 AM,21.0,10.8,65,30.34,10.0,SSE,6.9,-,N/A,,Scattered Clouds,160,2013-01-18 13:34:00
8:54 AM,21.7,10.0,61,30.35,10.0,South,9.2,-,N/A,,Mostly Cloudy,170,2013-01-18 13:54:00
9:34 AM,23.0,11.8,62,30.34,10.0,South,8.1,-,N/A,,Mostly Cloudy,180,2013-01-18 14:34:00
9:54 AM,24.3,12.9,62,30.33,10.0,South,11.5,-,N/A,,Mostly Cloudy,180,2013-01-18 14:54:00
10:14 AM,25.2,13.8,62,30.34,10.0,South,10.4,-,N/A,,Overcast,180,2013-01-18 15:14:00
10:34 AM,26.1,15.1,63,30.33,10.0,South,11.5,16.1,N/A,,Overcast,180,2013-01-18 15:34:00
10:54 AM,27.1,15.4,61,30.32,10.0,South,11.5,-,N/A,,Overcast,180,2013-01-18 15:54:00
11:14 AM,28.4,16.9,62,30.30,10.0,South,16.1,19.6,N/A,,Overcast,190,2013-01-18 16:14:00
11:34 AM,29.3,17.6,62,30.29,10.0,SSW,12.7,-,N/A,,Overcast,200,2013-01-18 16:34:00
11:54 AM,30.7,18.3,60,30.26,10.0,SSW,13.8,18.4,N/A,,Mostly Cloudy,200,2013-01-18 16:54:00
12:14 PM,32.0,17.8,56,30.24,7.0,South,19.6,-,N/A,,Scattered Clouds,190,2013-01-18 17:14:00
12:34 PM,32.0,17.4,55,30.21,7.0,SSW,15.0,25.3,N/A,,Overcast,200,2013-01-18 17:34:00
12:54 PM,32.4,16.3,52,30.19,10.0,SSW,17.3,21.9,N/A,,Overcast,200,2013-01-18 17:54:00
1:14 PM,33.3,14.0,45,30.17,10.0,South,18.4,23.0,N/A,,Overcast,190,2013-01-18 18:14:00
1:34 PM,33.8,14.4,45,30.15,10.0,SSW,17.3,24.2,N/A,,Overcast,200,2013-01-18 18:34:00
1:54 PM,34.3,15.1,45,30.12,10.0,SSW,19.6,27.6,N/A,,Overcast,210,2013-01-18 18:54:00
2:14 PM,35.4,17.1,47,30.10,10.0,SSW,18.4,25.3,N/A,,Overcast,200,2013-01-18 19:14:00
2:34 PM,35.6,19.0,51,30.09,10.0,SSW,25.3,29.9,N/A,,Overcast,200,2013-01-18 19:34:00
2:54 PM,36.7,20.3,52,30.07,10.0,SSW,27.6,32.2,N/A,,Mostly Cloudy,200,2013-01-18 19:54:00
3:14 PM,36.5,20.7,53,30.06,10.0,SSW,20.7,27.6,N/A,,Clear,200,2013-01-18 20:14:00
3:34 PM,36.1,21.0,54,30.05,10.0,SSW,19.6,26.5,N/A,,Clear,200,2013-01-18 20:34:00
3:54 PM,36.9,21.9,55,30.03,10.0,SSW,25.3,33.4,N/A,,Clear,210,2013-01-18 20:54:00
4:14 PM,36.7,22.1,56,30.01,10.0,SSW,21.9,31.1,N/A,,Clear,200,2013-01-18 21:14:00
4:34 PM,36.9,22.6,56,30.00,10.0,SSW,21.9,29.9,N/A,,Clear,210,2013-01-18 21:34:00
4:54 PM,36.9,22.8,57,29.99,10.0,SSW,19.6,25.3,N/A,,Clear,200,2013-01-18 21:54:00
5:14 PM,37.0,23.0,57,29.97,10.0,SSW,20.7,26.5,N/A,,Clear,200,2013-01-18 22:14:00
5:34 PM,37.6,23.4,57,29.95,10.0,SSW,17.3,27.6,N/A,,Clear,200,2013-01-18 22:34:00
5:54 PM,37.6,23.4,57,29.95,10.0,SSW,19.6,29.9,N/A,,Clear,200,2013-01-18 22:54:00
6:14 PM,37.8,23.4,56,29.93,10.0,SSW,23.0,33.4,N/A,,Clear,210,2013-01-18 23:14:00
6:34 PM,37.8,23.2,56,29.93,10.0,SSW,21.9,31.1,N/A,,Clear,210,2013-01-18 23:34:00
6:54 PM,38.3,23.0,54,29.95,10.0,SW,17.3,29.9,N/A,,Clear,220,2013-01-18 23:54:00
7:14 PM,38.3,22.8,54,29.94,10.0,SW,16.1,21.9,N/A,,Clear,220,2013-01-19 00:14:00
7:34 PM,38.3,22.6,53,29.95,10.0,SW,20.7,28.8,N/A,,Clear,220,2013-01-19 00:34:00
7:54 PM,39.0,21.7,50,29.94,10.0,SW,19.6,28.8,N/A,,Clear,220,2013-01-19 00:54:00
8:14 PM,38.5,21.7,51,29.95,10.0,SW,16.1,23.0,N/A,,Clear,220,2013-01-19 01:14:00
8:34 PM,37.8,21.9,53,29.94,10.0,SSW,13.8,20.7,N/A,,Clear,210,2013-01-19 01:34:00
8:54 PM,37.4,21.7,53,29.93,10.0,SSW,11.5,-,N/A,,Clear,210,2013-01-19 01:54:00
9:14 PM,36.7,22.1,56,29.92,10.0,SSW,11.5,-,N/A,,Clear,210,2013-01-19 02:14:00
9:34 PM,37.0,21.9,54,29.92,10.0,SW,13.8,21.9,N/A,,Clear,220,2013-01-19 02:34:00
10:14 PM,39.4,21.2,48,29.90,10.0,SW,20.7,26.5,N/A,,Clear,220,2013-01-19 03:14:00
10:34 PM,39.6,21.6,49,29.89,10.0,SW,18.4,25.3,N/A,,Clear,230,2013-01-19 03:34:00
10:54 PM,39.4,21.9,50,29.88,10.0,SW,18.4,24.2,N/A,,Clear,230,2013-01-19 03:54:00
11:14 PM,39.4,22.1,50,29.87,10.0,SW,20.7,27.6,N/A,,Clear,230,2013-01-19 04:14:00
11:34 PM,39.7,22.6,50,29.87,10.0,SW,19.6,25.3,N/A,,Clear,230,2013-01-19 04:34:00
11:54 PM,40.1,23.0,51,29.86,10.0,SW,17.3,28.8,N/A,,Clear,230,2013-01-19 04:54:00